SCP
0 0 -0 -0 -0 -0 0 0 0 0 0 0 0 0 0 0 0 -0 0 0 -0 0 0 -0 -0 -0 -0 -0 -0 -0 -0 -0 -0 -0 -0 -0 -0 -0 -0 -0 -0 -0 -0 -0 -0 -0 -0 -0 -0
0 -0 -0 -0 -0 0 0 0 0 0 0 0 0 0 0 0 0 0 0 0 -0 0 0 0 -0 -0 -0 -0 -0 -0 -0 -0 -0 -0 -0 -0 -0 -0 -0 -0 -0 -0 -0 -0 -0 -0 -0 -0 -0
-0 0 -0 -0 -0 0 0 0 0 0 0 0 0 0 0 0 0 0 0 -0 -0 -0 0 -0 -0 -0 -0 -0 -0 -0 -0 -0 -0 -0 -0 -0 -0 -0 -0 -0 -0 -0 -0 -0 -0 -0 -0 -0 -0
-0 -0 -0 -0 -0 0 0 0 0 0 0 0 0 0 0 0 0 -0 0 -0 -0 -0 0 -0 -0 -0 -0 -0 -0 -0 -0 -0 -0 -0 -0 -0 -0 -0 -0 -0 -0 -0 -0 -0 -0 -0 -0 -0 -0
0 -0 -0 -0 -0 -0 0 -0 0 0 0 0 0 0 0 0 0 0 -0 -0 -0 -0 -0 -0 -0 -0 -0 -0 -0 -0 -0 -0 -0 -0 -0 -0 -0 -0 -0 -0 -0 -0 -0 -0 -0 -0 -0 -0 -0
0 0 -0 0 0 -0 -0 0 -0 0 0 0 -0 -0 0 0 0 -0 -0 -0 -0 -0 -0 -0 -0 -0 -0 -0 -0 -0 -0 -0 -0 -0 -0 -0 -0 -0 -0 -0 -0 -0 -0 -0 -0 -0 -0 -0 -0
-0 -0 -0 0 0 0 -0 -0 0 -0 -0 0 -0 -0 -0 0 -0 -0 -0 -0 -0 -0 -0 -0 -0 -0 -0 -0 -0 -0 -0 -0 -0 -0 -0 -0 -0 -0 -0 -0 -0 -0 -0 -0 -0 -0 -0 -0 -0
0 0 0 0 -0 -0 -0 -0 -0 -0 -0 0 -0 -0 -0 -0 -0 -0 -0 -0 -0 -0 -0 -0 -0 -0 -0 -0 -0 -0 -0 -0 -0 -0 -0 -0 -0 -0 -0 -0 -0 -0 -0 -0 -0 -0 -0 -0 -0
0 0 -0 -0 -0 -0 -0 -0 0 0 -0 0 -0 0 -0 -0 -0 -0 -0 0 0 0 0 -0 -0 -0 -0 -0 -0 -0 -0 -0 -0 -0 -0 -0 0 -0 -0 -0 -0 -0 -0 -0 -0 -0 -0 -0 -0
0 0 0 0 -0 0 0 0 -0 0 0 0 -0 -0 0 -0 -0 -0 -0 -0 0 0 0 0 0 0 0 0 -0 -0 -0 0 0 -0 -0 0 0 0 0 0 -0 -0 -0 -0 -0 -0 -0 -0 0
0 0 0 0 0 0 0 0 0 0 0 -0 -0 0 0 0 -0 -0 -0 -0 -0 0 0 0 0 0 0 0 0 0 0 0 0 0 0 0 0 0 0 0 0 0 0 0 0 0 0 0 0
0 0 0 0 0 0 0 0 0 0 0 0 0 0 0 -0 -0 -0 -0 0 0 0 0 0 0 0 0 0 0 0 0 0 0 0 0 0 0 0 0 0 0 0 0 0 0 0 0 0 0
0 0 0 0 0 0 0 0 0 0 0 0 0 0 0 0 0 0 0 0 0 0 0 0 0 0 0 0 0 0 0 0 0 0 0 0 0 0 0 0 0 0 0 0 0 0 0 0 0
0 0 0 0 0 0 0 0 0 0 0 0 0 0 0 0 -0 0 0 0 0 0 0 0 0 0 0 0 0 0 0 0 0 0 0 0 0 0 0 0 0 0 0 0 0 0 0 0 0
0 0 0 0 0 0 0 0 0 0 0 0 0 0 0 0 0 0 0 0 0 0 0 0 0 0 0 0 0 0 0 0 0 0 0 0 0 0 0 0 0 0 0 0 0 0 0 0 0
0 0 0 0 0 0 0 0 0 0 0 -0 0 0 0 0 0 0 0 0 0 0 0 0 0 0 0 0 0 0 0 0 0 0 0 0 0 0 0 0 0 0 0 0 0 0 0 0 0
0 0 0 0 0 0 0 0 0 0 0 0 0 0 0 -0 0 0 0 0 0 0 0 0 0 0 0 0 0 0 0 0 0 0 0 0 0 0 0 0 0 0 0 0 0 0 0 0 0
0 0 0 0 0 0 0 0 0 0 0 0 0 0 0 0 0 0 0 0 0 0 0 0 0 0 0 0 0 0 0 0 0 0 0 0 0 0 0 0 0 0 0 0 0 0 0 0 0
0 0 0 0 0 0 0 0 0 0 0 0 0 0 0 0 0 0 0 0 0 0 0 0 0 0 0 0 0 0 0 0 0 0 0 0 0 0 0 0 0 0 0 0 0 0 0 0 0
0 0 0 0 0 0 0 0 0 0 0 0 0 0 0 0 0 0 0 0 0 0 0 0 0 0 0 0 0 0 0 0 0 0 0 0 0 0 0 0 0 0 0 0 0 0 0 0 0
0 0 0 0 0 0 0 0 0 0 0 0 0 0 0 0 0 0 0 0 0 0 0 0 0 0 0 0 0 0 0 0 0 0 0 0 0 0 0 0 0 0 0 0 0 0 0 0 0
0 0 0 0 0 0 0 -0 0 0 0 0 0 0 0 0 0 0 0 0 0 0 0 0 0 0 0 0 0 0 0 0 0 0 0 0 0 0 0 0 0 0 0 0 0 0 0 0 0
0 0 0 0 0 0 0 0 0 0 0 0 0 0 0 0 0 0 0 0 0 0 0 0 0 0 0 0 0 0 0 0 0 0 0 0 0 0 0 0 0 0 0 0 0 0 0 0 0
0 0 0 0 0 0 0 0 0 0 0 0 0 0 0 0 0 0 0 0 0 0 0 0 0 0 0 0 0 0 0 0 0 0 0 0 0 0 0 0 0 0 0 0 0 0 0 0 0
0 0 0 0 0 0 0 0 0 0 0 0 0 0 0 0 0 0 0 0 0 0 0 0 0 0 0 0 0 0 0 0 0 0 0 0 0 0 0 0 0 0 0 0 0 0 0 0 0
0 0 0 0 0 0 0 0 0 0 0 0 0 0 -0 0 0 0 0 0 0 0 0 0 0 0 0 0 0 0 0 0 0 0 0 0 0 0 0 0 0 0 0 0 0 0 0 0 0
0 0 0 0 0 0 0 0 0 0 0 0 0 0 0 0 0 0 0 0 0 0 0 0 0 0 0 0 0 0 0 0 0 0 0 0 0 0 0 0 0 0 0 0 0 0 0 0 0
0 0 0 0 0 0 0 0 0 0 0 0 -0 0 0 0 0 0 0 0 0 0 0 0 0 0 0 0 0 0 0 0 0 0 0 0 0 0 0 0 0 0 0 0 0 0 0 0 0
0 0 0 0 0 0 0 0 0 0 0 0 0 0 0 0 0 0 0 0 -0 0 0 0 0 0 0 0 0 0 0 0 0 0 0 0 0 0 0 0 0 0 0 0 0 0 0 0 0
0 0 0 0 0 0 0 0 0 0 0 0 0 0 0 0 0 0 0 0 -0 -0 0 0 0 0 0 0 0 0 0 0 0 0 0 0 0 0 0 0 0 0 0 0 0 0 0 0 0
Wind_Speed_500mb
7 6 2 3 8 8 3 6 1 5 3 5 14 10 8 7 4 5 43 32 31 31 31 30 30 29 29 27 28 26 24 21 25 30 33 36 38 38 37 34 32 30 30 30 30 28 30 30 30
6 3 3 6 9 5 6 4 9 7 8 26 20 15 5 3 11 26 35 33 36 32 33 31 30 30 29 25 23 23 22 21 23 26 30 34 37 37 36 36 34 31 29 28 28 29 30 29 31
6 2 3 8 6 8 8 9 9 15 24 7 9 6 8 12 24 38 30 32 39 34 33 33 30 28 26 24 23 22 20 19 20 24 27 30 34 35 34 33 31 30 29 28 27 29 27 26 26
8 4 12 8 5 5 5 9 15 22 5 8 11 9 9 16 29 24 32 34 39 36 33 32 30 27 23 21 19 17 16 17 17 21 22 27 29 31 31 32 31 30 29 28 27 26 26 24 25
8 6 8 7 4 5 7 9 39 12 5 11 11 9 11 23 22 27 34 36 36 36 34 32 30 27 24 21 18 15 13 13 14 16 19 22 23 26 29 31 30 30 28 28 27 25 26 27 27
7 6 7 4 5 5 3 19 22 9 8 13 8 17 12 24 28 31 36 37 35 33 34 32 31 28 25 22 19 16 13 12 14 15 15 18 18 21 24 29 32 26 30 31 30 30 29 29 29
11 8 9 8 6 4 10 24 15 16 12 10 8 12 8 30 32 33 38 36 35 36 34 35 33 30 28 25 21 18 14 12 13 14 12 13 13 16 20 27 33 34 34 32 31 29 28 30 30
9 12 7 6 9 7 14 24 13 21 13 11 18 8 6 36 38 36 40 39 37 36 38 36 35 34 32 28 24 20 17 14 14 14 12 10 9 11 16 21 26 29 33 34 33 31 30 28 28
9 9 5 11 13 7 20 12 12 12 13 20 20 11 9 37 41 42 44 43 40 41 40 39 36 34 33 30 27 24 20 19 18 16 15 12 9 10 13 16 17 18 21 24 26 29 30 28 29
9 8 16 9 11 7 16 11 22 12 11 16 20 25 17 29 45 47 49 47 45 44 43 41 39 38 36 33 30 25 23 22 19 18 16 13 10 9 12 7 5 6 9 11 16 20 23 23 24
8 8 8 8 6 7 13 10 20 16 7 25 28 28 28 29 45 49 48 46 42 41 42 42 40 40 39 38 33 32 26 26 25 23 23 17 15 11 12 12 11 4 2 2 7 11 14 14 15
9 2 7 8 6 9 12 11 11 27 21 8 22 22 30 35 44 49 51 49 47 46 44 44 45 44 40 43 42 39 35 32 33 30 29 25 25 21 19 17 17 11 5 4 5 7 6 7 11
6 7 4 4 3 3 8 10 16 24 37 27 17 23 31 37 41 47 47 47 48 50 48 47 48 47 46 44 45 47 44 40 35 34 33 30 32 28 27 25 26 22 10 10 11 12 12 10 10
6 7 3 5 6 5 7 7 6 11 32 31 32 30 32 39 41 46 52 53 55 51 51 49 48 48 49 48 48 49 50 46 45 46 41 40 39 33 33 32 34 35 18 11 14 15 16 16 13
6 2 9 4 4 3 4 11 20 32 23 19 32 35 37 42 47 53 50 51 50 50 50 50 49 49 50 51 52 54 51 54 50 53 53 48 46 40 37 39 34 35 20 16 19 23 20 18 15
7 9 3 5 2 3 7 16 16 11 28 49 44 43 41 47 53 55 55 56 53 54 55 52 52 51 51 51 51 53 56 52 51 52 49 47 53 45 42 45 41 33 24 25 25 28 28 25 22
12 5 5 15 8 0 5 12 11 8 14 31 36 52 52 52 56 60 61 61 59 58 57 58 56 54 52 51 50 51 53 57 55 53 49 52 52 53 52 48 45 42 32 29 29 35 31 32 34
10 7 6 9 4 3 7 23 22 39 31 39 40 39 48 58 63 60 61 63 63 64 62 62 61 58 56 53 52 51 53 58 52 51 51 52 53 54 51 58 62 41 40 38 41 40 38 35 35
11 7 8 7 6 6 14 20 23 55 40 51 57 60 65 67 57 58 63 65 67 69 69 68 67 64 62 59 58 57 60 61 56 53 51 54 55 53 52 53 57 52 48 44 46 44 45 48 43
6 4 11 10 5 8 13 30 24 29 50 58 71 76 79 76 73 70 64 69 74 75 74 73 71 69 66 63 59 61 61 63 54 54 54 56 54 53 57 60 52 50 49 54 55 54 57 52 51
8 11 9 13 6 6 12 17 13 13 41 60 76 84 83 85 86 81 75 71 73 79 79 78 75 73 72 69 64 64 62 63 64 66 64 62 59 59 61 62 61 57 57 57 56 57 55 56 54
8 15 8 4 6 8 4 11 17 15 17 16 54 59 71 79 81 82 82 76 77 79 80 81 80 79 77 75 72 71 72 77 76 69 63 63 61 63 68 68 61 58 56 56 54 55 52 46 46
13 11 13 7 6 7 4 6 16 5 15 22 42 70 73 72 64 57 57 60 59 67 75 83 86 86 85 79 76 73 73 73 67 64 65 69 62 62 57 67 64 60 56 56 58 60 56 50 44
19 12 12 8 4 7 17 14 9 11 14 12 22 48 44 37 33 31 31 36 40 47 58 70 85 91 89 83 79 77 75 76 72 72 70 71 64 60 62 65 63 59 59 61 62 59 56 50 44
2 12 3 6 2 15 4 8 24 14 18 17 28 58 49 38 31 25 24 25 29 34 43 55 71 88 92 86 82 79 77 73 74 73 70 72 67 66 68 70 67 64 63 64 63 61 57 51 44
19 16 12 14 8 8 6 15 14 17 34 53 59 64 59 46 33 29 24 25 28 33 39 47 55 74 88 89 85 82 78 75 76 73 68 70 68 65 65 70 67 67 69 68 65 61 55 50 46
12 15 5 7 5 4 11 18 18 16 24 37 60 43 49 43 30 25 26 20 21 26 31 38 47 59 77 87 85 83 78 78 75 77 73 66 71 67 62 71 71 73 74 71 67 63 58 53 46
8 11 6 2 7 9 12 12 18 10 14 20 15 29 30 20 21 17 17 19 19 21 25 33 42 52 63 79 83 81 79 77 74 75 74 69 71 74 66 72 76 79 78 74 69 64 58 51 44
7 8 3 8 9 10 3 15 15 16 14 17 18 15 8 4 6 14 13 11 12 16 23 27 36 46 57 73 80 80 77 75 75 77 75 72 70 73 77 76 81 86 83 78 72 65 58 51 43
2 8 12 9 10 6 5 25 7 12 10 10 20 16 11 2 10 14 15 13 13 10 17 24 30 39 49 64 76 78 77 77 78 80 76 75 76 76 79 81 87 91 87 81 74 66 58 51 46
Wind_Direction_500mb
254 289 3 52 61 67 132 228 346 167 195 182 144 157 175 87 136 146 144 152 156 154 149 149 148 144 141 137 129 122 112 95 83 83 80 80 81 80 79 79 77 76 74 76 79 81 80 81 79
236 239 56 98 87 86 261 241 208 215 143 130 116 115 107 108 116 142 146 151 157 158 153 152 152 151 147 141 129 121 113 98 88 91 87 86 82 78 75 75 74 74 75 77 82 82 80 78 75
201 151 83 88 106 170 197 198 189 139 143 157 121 111 130 136 134 148 159 158 159 162 159 157 158 157 151 144 135 128 120 104 95 96 94 90 83 80 79 81 83 82 80 81 83 89 89 84 78
176 107 64 80 162 234 226 177 157 148 223 167 147 107 135 139 146 159 162 164 162 163 163 164 164 164 159 150 143 131 120 109 101 101 99 88 80 75 76 78 80 81 84 88 90 90 87 84 76
153 84 63 81 282 267 256 182 160 159 159 162 161 173 156 158 164 158 162 163 167 168 168 170 172 172 169 163 156 148 137 124 113 107 97 91 83 77 77 74 75 78 80 82 83 84 83 79 78
105 85 69 182 239 279 225 167 164 173 162 165 170 154 162 176 169 166 166 165 171 178 173 176 179 180 179 178 174 169 159 142 126 118 110 103 89 77 75 70 62 75 83 79 75 72 72 73 71
119 84 172 158 199 212 198 171 176 179 174 211 175 142 192 179 175 172 172 173 175 178 184 183 185 185 188 188 186 181 174 157 143 143 131 117 96 84 84 73 65 72 79 78 77 75 74 73 76
113 92 113 203 194 240 182 171 202 183 204 186 175 193 197 185 177 175 177 181 184 187 191 193 193 195 197 197 197 195 188 181 173 167 155 148 119 104 96 79 72 74 80 80 76 75 74 75 76
117 68 178 199 157 228 163 179 181 187 167 180 197 202 180 184 185 182 184 187 189 193 196 197 199 201 202 203 202 204 206 205 202 192 187 183 163 135 130 105 75 64 74 77 77 75 74 74 76
91 120 215 195 188 192 183 190 174 174 183 213 221 221 212 192 195 195 195 195 196 197 198 201 206 203 203 203 205 211 210 215 217 211 207 202 186 175 174 158 115 49 37 79 82 78 74 73 74
114 178 186 192 213 188 185 209 183 169 219 220 226 228 218 206 202 205 205 207 207 205 207 208 211 209 213 209 206 210 217 224 223 212 215 210 215 214 222 215 208 202 63 340 110 99 86 79 80
97 175 175 161 170 160 172 181 206 207 225 226 238 238 232 218 213 212 210 210 210 214 217 220 221 227 223 216 210 205 211 225 231 227 216 214 225 209 223 225 214 217 184 238 191 157 131 106 104
100 189 197 188 181 186 181 219 229 238 235 239 248 238 237 228 225 219 217 216 217 219 222 226 227 229 231 230 221 216 214 218 221 228 230 222 229 220 219 222 220 213 222 220 194 178 183 152 137
132 158 223 228 201 214 211 218 228 245 239 236 241 242 242 235 230 222 220 220 223 225 227 228 230 232 232 231 231 230 229 218 217 219 222 226 231 235 227 226 241 207 202 213 222 197 174 159 152
80 352 328 242 243 242 207 291 237 238 249 241 241 244 241 241 232 231 231 230 231 233 232 233 234 235 235 234 234 234 233 222 222 221 222 224 228 230 231 228 249 194 195 228 229 203 173 172 173
62 54 9 313 197 299 149 264 269 260 244 249 250 251 249 243 241 238 234 234 233 234 236 237 237 238 240 239 237 233 235 229 223 222 222 220 224 223 224 227 220 203 213 229 226 209 188 191 183
11 202 218 317 208 7 162 267 273 281 259 258 254 251 252 250 242 239 237 237 236 239 239 239 239 241 241 240 238 234 229 228 223 221 221 220 222 221 219 227 231 208 216 231 213 197 201 190 172
194 185 239 246 245 194 243 255 274 268 274 273 276 267 257 254 249 245 240 238 238 240 240 239 239 240 241 240 238 232 225 223 222 221 218 219 221 222 222 225 223 226 222 223 206 205 193 188 177
132 154 223 236 225 219 237 260 263 270 274 266 266 265 262 258 258 252 244 240 239 239 241 241 240 240 240 239 235 229 223 223 216 215 217 217 222 221 221 216 234 214 238 220 204 203 194 180 178
142 146 262 277 236 193 275 272 254 246 259 255 261 262 259 259 257 252 247 241 240 241 242 242 242 241 242 242 239 234 225 223 220 217 217 216 219 222 222 221 216 234 223 210 205 201 190 189 181
194 181 225 234 337 251 335 284 277 264 250 258 258 259 260 256 255 254 250 245 243 243 243 243 243 243 243 242 237 231 221 220 219 215 216 222 220 221 221 219 229 229 223 210 205 205 206 192 188
215 205 158 174 40 259 47 287 285 255 250 249 256 256 258 260 259 258 259 255 250 252 249 245 243 242 242 240 236 233 228 223 224 223 217 222 223 225 226 232 233 221 213 207 208 204 202 206 200
219 130 158 142 176 348 328 278 259 26 276 251 250 256 261 266 269 268 267 267 263 256 254 249 244 240 239 239 236 233 227 227 231 223 222 221 226 227 228 220 214 210 208 207 205 197 197 203 208
146 80 51 51 84 286 190 189 201 185 218 260 259 265 270 280 275 275 270 259 254 250 247 245 243 240 239 237 235 233 228 224 225 222 223 220 223 226 220 212 209 209 210 204 199 198 200 205 208
128 109 309 326 18 236 322 216 261 250 236 228 253 269 282 280 272 271 267 263 260 257 254 247 241 237 236 235 234 233 232 225 223 228 225 221 222 222 219 214 209 210 206 201 200 200 203 203 207
200 165 171 206 201 262 33 238 252 236 262 258 262 264 270 277 280 276 272 268 263 263 259 255 248 238 233 232 232 231 230 224 226 225 226 225 226 225 223 220 215 210 204 203 203 203 203 204 206
201 208 151 93 71 37 222 277 289 269 277 267 263 271 278 275 274 288 277 267 268 271 267 261 253 244 236 231 230 230 229 226 225 221 222 226 226 226 225 225 218 208 204 203 203 204 205 205 207
162 171 87 350 188 242 268 269 236 272 264 265 284 286 307 290 247 237 239 263 274 278 273 263 254 248 241 231 231 231 230 227 226 223 223 226 229 228 224 226 217 207 203 204 204 204 205 207 206
144 211 135 136 160 186 277 265 214 219 241 266 291 300 358 66 171 191 229 254 282 300 295 280 265 254 240 230 232 233 233 230 226 224 224 230 230 230 226 222 217 209 206 204 205 206 207 207 208
103 219 153 148 221 243 171 267 167 225 218 274 296 300 327 253 198 222 228 243 258 276 294 294 281 266 249 235 232 234 234 232 228 225 224 230 231 230 228 222 216 211 208 208 208 209 209 210 209
Wind_Speed_850mb
7 6 2 3 8 8 3 6 1 5 3 5 14 10 8 7 4 5 43 32 31 31 31 30 30 29 29 27 28 26 24 21 25 30 33 36 38 38 37 34 32 30 30 30 30 28 30 30 30
6 3 3 6 9 5 6 4 9 7 8 26 20 15 5 3 11 26 35 33 36 32 33 31 30 30 29 25 23 23 22 21 23 26 30 34 37 37 36 36 34 31 29 28 28 29 30 29 31
6 2 3 8 6 8 8 9 9 15 24 7 9 6 8 12 24 38 30 32 39 34 33 33 30 28 26 24 23 22 20 19 20 24 27 30 34 35 34 33 31 30 29 28 27 29 27 26 26
8 4 12 8 5 5 5 9 15 22 5 8 11 9 9 16 29 24 32 34 39 36 33 32 30 27 23 21 19 17 16 17 17 21 22 27 29 31 31 32 31 30 29 28 27 26 26 24 25
8 6 8 7 4 5 7 9 39 12 5 11 11 9 11 23 22 27 34 36 36 36 34 32 30 27 24 21 18 15 13 13 14 16 19 22 23 26 29 31 30 30 28 28 27 25 26 27 27
7 6 7 4 5 5 3 19 22 9 8 13 8 17 12 24 28 31 36 37 35 33 34 32 31 28 25 22 19 16 13 12 14 15 15 18 18 21 24 29 32 26 30 31 30 30 29 29 29
11 8 9 8 6 4 10 24 15 16 12 10 8 12 8 30 32 33 38 36 35 36 34 35 33 30 28 25 21 18 14 12 13 14 12 13 13 16 20 27 33 34 34 32 31 29 28 30 30
9 12 7 6 9 7 14 24 13 21 13 11 18 8 6 36 38 36 40 39 37 36 38 36 35 34 32 28 24 20 17 14 14 14 12 10 9 11 16 21 26 29 33 34 33 31 30 28 28
9 9 5 11 13 7 20 12 12 12 13 20 20 11 9 37 41 42 44 43 40 41 40 39 36 34 33 30 27 24 20 19 18 16 15 12 9 10 13 16 17 18 21 24 26 29 30 28 29
9 8 16 9 11 7 16 11 22 12 11 16 20 25 17 29 45 47 49 47 45 44 43 41 39 38 36 33 30 25 23 22 19 18 16 13 10 9 12 7 5 6 9 11 16 20 23 23 24
8 8 8 8 6 7 13 10 20 16 7 25 28 28 28 29 45 49 48 46 42 41 42 42 40 40 39 38 33 32 26 26 25 23 23 17 15 11 12 12 11 4 2 2 7 11 14 14 15
9 2 7 8 6 9 12 11 11 27 21 8 22 22 30 35 44 49 51 49 47 46 44 44 45 44 40 43 42 39 35 32 33 30 29 25 25 21 19 17 17 11 5 4 5 7 6 7 11
6 7 4 4 3 3 8 10 16 24 37 27 17 23 31 37 41 47 47 47 48 50 48 47 48 47 46 44 45 47 44 40 35 34 33 30 32 28 27 25 26 22 10 10 11 12 12 10 10
6 7 3 5 6 5 7 7 6 11 32 31 32 30 32 39 41 46 52 53 55 51 51 49 48 48 49 48 48 49 50 46 45 46 41 40 39 33 33 32 34 35 18 11 14 15 16 16 13
6 2 9 4 4 3 4 11 20 32 23 19 32 35 37 42 47 53 50 51 50 50 50 50 49 49 50 51 52 54 51 54 50 53 53 48 46 40 37 39 34 35 20 16 19 23 20 18 15
7 9 3 5 2 3 7 16 16 11 28 49 44 43 41 47 53 55 55 56 53 54 55 52 52 51 51 51 51 53 56 52 51 52 49 47 53 45 42 45 41 33 24 25 25 28 28 25 22
12 5 5 15 8 0 5 12 11 8 14 31 36 52 52 52 56 60 61 61 59 58 57 58 56 54 52 51 50 51 53 57 55 53 49 52 52 53 52 48 45 42 32 29 29 35 31 32 34
10 7 6 9 4 3 7 23 22 39 31 39 40 39 48 58 63 60 61 63 63 64 62 62 61 58 56 53 52 51 53 58 52 51 51 52 53 54 51 58 62 41 40 38 41 40 38 35 35
11 7 8 7 6 6 14 20 23 55 40 51 57 60 65 67 57 58 63 65 67 69 69 68 67 64 62 59 58 57 60 61 56 53 51 54 55 53 52 53 57 52 48 44 46 44 45 48 43
6 4 11 10 5 8 13 30 24 29 50 58 71 76 79 76 73 70 64 69 74 75 74 73 71 69 66 63 59 61 61 63 54 54 54 56 54 53 57 60 52 50 49 54 55 54 57 52 51
8 11 9 13 6 6 12 17 13 13 41 60 76 84 83 85 86 81 75 71 73 79 79 78 75 73 72 69 64 64 62 63 64 66 64 62 59 59 61 62 61 57 57 57 56 57 55 56 54
8 15 8 4 6 8 4 11 17 15 17 16 54 59 71 79 81 82 82 76 77 79 80 81 80 79 77 75 72 71 72 77 76 69 63 63 61 63 68 68 61 58 56 56 54 55 52 46 46
13 11 13 7 6 7 4 6 16 5 15 22 42 70 73 72 64 57 57 60 59 67 75 83 86 86 85 79 76 73 73 73 67 64 65 69 62 62 57 67 64 60 56 56 58 60 56 50 44
19 12 12 8 4 7 17 14 9 11 14 12 22 48 44 37 33 31 31 36 40 47 58 70 85 91 89 83 79 77 75 76 72 72 70 71 64 60 62 65 63 59 59 61 62 59 56 50 44
2 12 3 6 2 15 4 8 24 14 18 17 28 58 49 38 31 25 24 25 29 34 43 55 71 88 92 86 82 79 77 73 74 73 70 72 67 66 68 70 67 64 63 64 63 61 57 51 44
19 16 12 14 8 8 6 15 14 17 34 53 59 64 59 46 33 29 24 25 28 33 39 47 55 74 88 89 85 82 78 75 76 73 68 70 68 65 65 70 67 67 69 68 65 61 55 50 46
12 15 5 7 5 4 11 18 18 16 24 37 60 43 49 43 30 25 26 20 21 26 31 38 47 59 77 87 85 83 78 78 75 77 73 66 71 67 62 71 71 73 74 71 67 63 58 53 46
8 11 6 2 7 9 12 12 18 10 14 20 15 29 30 20 21 17 17 19 19 21 25 33 42 52 63 79 83 81 79 77 74 75 74 69 71 74 66 72 76 79 78 74 69 64 58 51 44
7 8 3 8 9 10 3 15 15 16 14 17 18 15 8 4 6 14 13 11 12 16 23 27 36 46 57 73 80 80 77 75 75 77 75 72 70 73 77 76 81 86 83 78 72 65 58 51 43
2 8 12 9 10 6 5 25 7 12 10 10 20 16 11 2 10 14 15 13 13 10 17 24 30 39 49 64 76 78 77 77 78 80 76 75 76 76 79 81 87 91 87 81 74 66 58 51 46
Wind_Direction_850mb
254 289 3 52 61 67 132 228 346 167 195 182 144 157 175 87 136 146 144 152 156 154 149 149 148 144 141 137 129 122 112 95 83 83 80 80 81 80 79 79 77 76 74 76 79 81 80 81 79
236 239 56 98 87 86 261 241 208 215 143 130 116 115 107 108 116 142 146 151 157 158 153 152 152 151 147 141 129 121 113 98 88 91 87 86 82 78 75 75 74 74 75 77 82 82 80 78 75
201 151 83 88 106 170 197 198 189 139 143 157 121 111 130 136 134 148 159 158 159 162 159 157 158 157 151 144 135 128 120 104 95 96 94 90 83 80 79 81 83 82 80 81 83 89 89 84 78
176 107 64 80 162 234 226 177 157 148 223 167 147 107 135 139 146 159 162 164 162 163 163 164 164 164 159 150 143 131 120 109 101 101 99 88 80 75 76 78 80 81 84 88 90 90 87 84 76
153 84 63 81 282 267 256 182 160 159 159 162 161 173 156 158 164 158 162 163 167 168 168 170 172 172 169 163 156 148 137 124 113 107 97 91 83 77 77 74 75 78 80 82 83 84 83 79 78
105 85 69 182 239 279 225 167 164 173 162 165 170 154 162 176 169 166 166 165 171 178 173 176 179 180 179 178 174 169 159 142 126 118 110 103 89 77 75 70 62 75 83 79 75 72 72 73 71
119 84 172 158 199 212 198 171 176 179 174 211 175 142 192 179 175 172 172 173 175 178 184 183 185 185 188 188 186 181 174 157 143 143 131 117 96 84 84 73 65 72 79 78 77 75 74 73 76
113 92 113 203 194 240 182 171 202 183 204 186 175 193 197 185 177 175 177 181 184 187 191 193 193 195 197 197 197 195 188 181 173 167 155 148 119 104 96 79 72 74 80 80 76 75 74 75 76
117 68 178 199 157 228 163 179 181 187 167 180 197 202 180 184 185 182 184 187 189 193 196 197 199 201 202 203 202 204 206 205 202 192 187 183 163 135 130 105 75 64 74 77 77 75 74 74 76
91 120 215 195 188 192 183 190 174 174 183 213 221 221 212 192 195 195 195 195 196 197 198 201 206 203 203 203 205 211 210 215 217 211 207 202 186 175 174 158 115 49 37 79 82 78 74 73 74
114 178 186 192 213 188 185 209 183 169 219 220 226 228 218 206 202 205 205 207 207 205 207 208 211 209 213 209 206 210 217 224 223 212 215 210 215 214 222 215 208 202 63 340 110 99 86 79 80
97 175 175 161 170 160 172 181 206 207 225 226 238 238 232 218 213 212 210 210 210 214 217 220 221 227 223 216 210 205 211 225 231 227 216 214 225 209 223 225 214 217 184 238 191 157 131 106 104
100 189 197 188 181 186 181 219 229 238 235 239 248 238 237 228 225 219 217 216 217 219 222 226 227 229 231 230 221 216 214 218 221 228 230 222 229 220 219 222 220 213 222 220 194 178 183 152 137
132 158 223 228 201 214 211 218 228 245 239 236 241 242 242 235 230 222 220 220 223 225 227 228 230 232 232 231 231 230 229 218 217 219 222 226 231 235 227 226 241 207 202 213 222 197 174 159 152
80 352 328 242 243 242 207 291 237 238 249 241 241 244 241 241 232 231 231 230 231 233 232 233 234 235 235 234 234 234 233 222 222 221 222 224 228 230 231 228 249 194 195 228 229 203 173 172 173
62 54 9 313 197 299 149 264 269 260 244 249 250 251 249 243 241 238 234 234 233 234 236 237 237 238 240 239 237 233 235 229 223 222 222 220 224 223 224 227 220 203 213 229 226 209 188 191 183
11 202 218 317 208 7 162 267 273 281 259 258 254 251 252 250 242 239 237 237 236 239 239 239 239 241 241 240 238 234 229 228 223 221 221 220 222 221 219 227 231 208 216 231 213 197 201 190 172
194 185 239 246 245 194 243 255 274 268 274 273 276 267 257 254 249 245 240 238 238 240 240 239 239 240 241 240 238 232 225 223 222 221 218 219 221 222 222 225 223 226 222 223 206 205 193 188 177
132 154 223 236 225 219 237 260 263 270 274 266 266 265 262 258 258 252 244 240 239 239 241 241 240 240 240 239 235 229 223 223 216 215 217 217 222 221 221 216 234 214 238 220 204 203 194 180 178
142 146 262 277 236 193 275 272 254 246 259 255 261 262 259 259 257 252 247 241 240 241 242 242 242 241 242 242 239 234 225 223 220 217 217 216 219 222 222 221 216 234 223 210 205 201 190 189 181
194 181 225 234 337 251 335 284 277 264 250 258 258 259 260 256 255 254 250 245 243 243 243 243 243 243 243 242 237 231 221 220 219 215 216 222 220 221 221 219 229 229 223 210 205 205 206 192 188
215 205 158 174 40 259 47 287 285 255 250 249 256 256 258 260 259 258 259 255 250 252 249 245 243 242 242 240 236 233 228 223 224 223 217 222 223 225 226 232 233 221 213 207 208 204 202 206 200
219 130 158 142 176 348 328 278 259 26 276 251 250 256 261 266 269 268 267 267 263 256 254 249 244 240 239 239 236 233 227 227 231 223 222 221 226 227 228 220 214 210 208 207 205 197 197 203 208
146 80 51 51 84 286 190 189 201 185 218 260 259 265 270 280 275 275 270 259 254 250 247 245 243 240 239 237 235 233 228 224 225 222 223 220 223 226 220 212 209 209 210 204 199 198 200 205 208
128 109 309 326 18 236 322 216 261 250 236 228 253 269 282 280 272 271 267 263 260 257 254 247 241 237 236 235 234 233 232 225 223 228 225 221 222 222 219 214 209 210 206 201 200 200 203 203 207
200 165 171 206 201 262 33 238 252 236 262 258 262 264 270 277 280 276 272 268 263 263 259 255 248 238 233 232 232 231 230 224 226 225 226 225 226 225 223 220 215 210 204 203 203 203 203 204 206
201 208 151 93 71 37 222 277 289 269 277 267 263 271 278 275 274 288 277 267 268 271 267 261 253 244 236 231 230 230 229 226 225 221 222 226 226 226 225 225 218 208 204 203 203 204 205 205 207
162 171 87 350 188 242 268 269 236 272 264 265 284 286 307 290 247 237 239 263 274 278 273 263 254 248 241 231 231 231 230 227 226 223 223 226 229 228 224 226 217 207 203 204 204 204 205 207 206
144 211 135 136 160 186 277 265 214 219 241 266 291 300 358 66 171 191 229 254 282 300 295 280 265 254 240 230 232 233 233 230 226 224 224 230 230 230 226 222 217 209 206 204 205 206 207 207 208
103 219 153 148 221 243 171 267 167 225 218 274 296 300 327 253 198 222 228 243 258 276 294 294 281 266 249 235 232 234 234 232 228 225 224 230 231 230 228 222 216 211 208 208 208 209 209 210 209